#datetime,building,power
2022-11-23T00:00:00,mfh,28.20
2022-11-23T00:01:00,mfh,28.74
2022-11-23T00:02:00,mfh,28.28
2022-11-23T00:03:00,mfh,29.29
2022-11-23T00:04:00,mfh,29.00
2022-11-23T00:05:00,mfh,29.23
2022-11-23T00:06:00,mfh,29.37
2022-11-23T00:07:00,mfh,28.87
2022-11-23T00:08:00,mfh,29.68
2022-11-23T00:09:00,mfh,28.63
2022-11-23T00:10:00,mfh,28.57
2022-11-23T00:11:00,mfh,29.15
2022-11-23T00:12:00,mfh,29.23
2022-11-23T00:13:00,mfh,29.36
2022-11-23T00:14:00,mfh,28.89
2022-11-23T00:15:00,mfh,28.93
2022-11-23T00:16:00,mfh,28.27
2022-11-23T00:17:00,mfh,28.33
2022-11-23T00:18:00,mfh,29.11
2022-11-23T00:19:00,mfh,27.07
2022-11-23T00:20:00,mfh,27.36
2022-11-23T00:21:00,mfh,27.30
2022-11-23T00:22:00,mfh,27.22
2022-11-23T00:23:00,mfh,26.57
2022-11-23T00:24:00,mfh,26.60
2022-11-23T00:25:00,mfh,26.52
2022-11-23T00:26:00,mfh,26.84
2022-11-23T00:27:00,mfh,27.13
2022-11-23T00:28:00,mfh,27.12
2022-11-23T00:29:00,mfh,27.10
2022-11-23T00:30:00,mfh,27.14
2022-11-23T00:31:00,mfh,26.51
2022-11-23T00:32:00,mfh,26.52
2022-11-23T00:33:00,mfh,26.40
2022-11-23T00:34:00,mfh,26.52
2022-11-23T00:35:00,mfh,27.70
2022-11-23T00:36:00,mfh,28.48
2022-11-23T00:37:00,mfh,28.15
2022-11-23T00:38:00,mfh,28.12
2022-11-23T00:39:00,mfh,28.22
2022-11-23T00:40:00,mfh,27.50
2022-11-23T00:41:00,mfh,26.84
2022-11-23T00:42:00,mfh,26.78
2022-11-23T00:43:00,mfh,27.42
2022-11-23T00:44:00,mfh,27.33
2022-11-23T00:45:00,mfh,27.36
2022-11-23T00:46:00,mfh,27.31
2022-11-23T00:47:00,mfh,27.07
2022-11-23T00:48:00,mfh,26.40
2022-11-23T00:49:00,mfh,26.38
2022-11-23T00:50:00,mfh,26.35
2022-11-23T00:51:00,mfh,26.95
2022-11-23T00:52:00,mfh,26.95
2022-11-23T00:53:00,mfh,27.14
2022-11-23T00:54:00,mfh,27.09
2022-11-23T00:55:00,mfh,27.16
2022-11-23T00:56:00,mfh,26.48
2022-11-23T00:57:00,mfh,26.44
2022-11-23T00:58:00,mfh,26.28
2022-11-23T00:59:00,mfh,26.27
2022-11-23T01:00:00,mfh,26.99
2022-11-23T01:01:00,mfh,27.06
2022-11-23T01:02:00,mfh,27.09
2022-11-23T01:03:00,mfh,26.98
2022-11-23T01:04:00,mfh,26.71
2022-11-23T01:05:00,mfh,26.35
2022-11-23T01:06:00,mfh,26.45
2022-11-23T01:07:00,mfh,26.44
2022-11-23T01:08:00,mfh,27.25
2022-11-23T01:09:00,mfh,27.22
2022-11-23T01:10:00,mfh,27.72
2022-11-23T01:11:00,mfh,27.63
2022-11-23T01:12:00,mfh,26.44
2022-11-23T01:13:00,mfh,26.35
2022-11-23T01:14:00,mfh,26.35
2022-11-23T01:15:00,mfh,27.04
2022-11-23T01:16:00,mfh,27.26
2022-11-23T01:17:00,mfh,29.20
2022-11-23T01:18:00,mfh,29.18
2022-11-23T01:19:00,mfh,29.40
2022-11-23T01:20:00,mfh,29.51
2022-11-23T01:21:00,mfh,28.82
2022-11-23T01:22:00,mfh,28.52
2022-11-23T01:23:00,mfh,28.44
2022-11-23T01:24:00,mfh,29.13
2022-11-23T01:25:00,mfh,29.17
2022-11-23T01:26:00,mfh,29.21
2022-11-23T01:27:00,mfh,29.22
2022-11-23T01:28:00,mfh,29.21
2022-11-23T01:29:00,mfh,28.71
2022-11-23T01:30:00,mfh,28.67
2022-11-23T01:31:00,mfh,28.60
2022-11-23T01:32:00,mfh,28.71
2022-11-23T01:33:00,mfh,29.50
2022-11-23T01:34:00,mfh,29.37
2022-11-23T01:35:00,mfh,29.35
2022-11-23T01:36:00,mfh,29.27
2022-11-23T01:37:00,mfh,28.55
2022-11-23T01:38:00,mfh,26.72
2022-11-23T01:39:00,mfh,28.04
2022-11-23T01:40:00,mfh,27.49
2022-11-23T01:41:00,mfh,27.55
2022-11-23T01:42:00,mfh,27.48
2022-11-23T01:43:00,mfh,28.17
2022-11-23T01:44:00,mfh,27.40
2022-11-23T01:45:00,mfh,26.61
2022-11-23T01:46:00,mfh,26.64
2022-11-23T01:47:00,mfh,27.51
2022-11-23T01:48:00,mfh,27.09
2022-11-23T01:49:00,mfh,27.53
2022-11-23T01:50:00,mfh,27.11
2022-11-23T01:51:00,mfh,27.13
2022-11-23T01:52:00,mfh,27.29
2022-11-23T01:53:00,mfh,26.69
2022-11-23T01:54:00,mfh,26.70
2022-11-23T01:55:00,mfh,26.57
2022-11-23T01:56:00,mfh,26.59
2022-11-23T01:57:00,mfh,27.33
2022-11-23T01:58:00,mfh,27.31
2022-11-23T01:59:00,mfh,27.95
2022-11-23T02:00:00,mfh,27.75
2022-11-23T02:01:00,mfh,26.42
2022-11-23T02:02:00,mfh,26.36
2022-11-23T02:03:00,mfh,26.32
2022-11-23T02:04:00,mfh,26.43
2022-11-23T02:05:00,mfh,27.04
2022-11-23T02:06:00,mfh,27.07
2022-11-23T02:07:00,mfh,27.13
2022-11-23T02:08:00,mfh,27.18
2022-11-23T02:09:00,mfh,26.60
2022-11-23T02:10:00,mfh,26.65
2022-11-23T02:11:00,mfh,26.69
2022-11-23T02:12:00,mfh,26.56
2022-11-23T02:13:00,mfh,27.16
2022-11-23T02:14:00,mfh,27.18
2022-11-23T02:15:00,mfh,27.14
2022-11-23T02:16:00,mfh,27.21
2022-11-23T02:17:00,mfh,27.50
2022-11-23T02:18:00,mfh,26.41
2022-11-23T02:19:00,mfh,26.26
2022-11-23T02:20:00,mfh,26.29
2022-11-23T02:21:00,mfh,27.12
2022-11-23T02:22:00,mfh,27.12
2022-11-23T02:23:00,mfh,27.10
2022-11-23T02:24:00,mfh,27.04
2022-11-23T02:25:00,mfh,27.05
2022-11-23T02:26:00,mfh,26.28
2022-11-23T02:27:00,mfh,26.29
2022-11-23T02:28:00,mfh,26.75
2022-11-23T02:29:00,mfh,27.21
2022-11-23T02:30:00,mfh,28.70
2022-11-23T02:31:00,mfh,29.48
2022-11-23T02:32:00,mfh,30.32
2022-11-23T02:33:00,mfh,29.65
2022-11-23T02:34:00,mfh,29.06
2022-11-23T02:35:00,mfh,27.15
2022-11-23T02:36:00,mfh,26.30
2022-11-23T02:37:00,mfh,33.93
2022-11-23T02:38:00,mfh,29.05
2022-11-23T02:39:00,mfh,29.08
2022-11-23T02:40:00,mfh,29.03
2022-11-23T02:41:00,mfh,29.53
2022-11-23T02:42:00,mfh,28.84
2022-11-23T02:43:00,mfh,28.55
2022-11-23T02:44:00,mfh,28.59
2022-11-23T02:45:00,mfh,29.31
2022-11-23T02:46:00,mfh,29.26
2022-11-23T02:47:00,mfh,29.50
2022-11-23T02:48:00,mfh,29.35
2022-11-23T02:49:00,mfh,29.60
2022-11-23T02:50:00,mfh,29.19
2022-11-23T02:51:00,mfh,28.44
2022-11-23T02:52:00,mfh,28.43
2022-11-23T02:53:00,mfh,28.45
2022-11-23T02:54:00,mfh,29.10
2022-11-23T02:55:00,mfh,29.08
2022-11-23T02:56:00,mfh,29.13
2022-11-23T02:57:00,mfh,29.12
2022-11-23T02:58:00,mfh,27.24
2022-11-23T02:59:00,mfh,26.54
2022-11-23T03:00:00,mfh,26.57
2022-11-23T03:01:00,mfh,26.43
2022-11-23T03:02:00,mfh,27.05
2022-11-23T03:03:00,mfh,26.96
2022-11-23T03:04:00,mfh,27.01
2022-11-23T03:05:00,mfh,27.01
2022-11-23T03:06:00,mfh,27.26
2022-11-23T03:07:00,mfh,26.49
2022-11-23T03:08:00,mfh,26.43
2022-11-23T03:09:00,mfh,26.38
2022-11-23T03:10:00,mfh,27.66
2022-11-23T03:11:00,mfh,27.15
2022-11-23T03:12:00,mfh,27.05
2022-11-23T03:13:00,mfh,27.01
2022-11-23T03:14:00,mfh,27.61
2022-11-23T03:15:00,mfh,26.52
2022-11-23T03:16:00,mfh,26.51
2022-11-23T03:17:00,mfh,26.43
2022-11-23T03:18:00,mfh,27.24
2022-11-23T03:19:00,mfh,26.93
2022-11-23T03:20:00,mfh,26.95
2022-11-23T03:21:00,mfh,27.00
2022-11-23T03:22:00,mfh,26.86
2022-11-23T03:23:00,mfh,26.23
2022-11-23T03:24:00,mfh,26.29
2022-11-23T03:25:00,mfh,26.46
2022-11-23T03:26:00,mfh,26.35
2022-11-23T03:27:00,mfh,27.01
2022-11-23T03:28:00,mfh,27.02
2022-11-23T03:29:00,mfh,27.09
2022-11-23T03:30:00,mfh,27.20
2022-11-23T03:31:00,mfh,26.47
2022-11-23T03:32:00,mfh,26.49
2022-11-23T03:33:00,mfh,26.82
2022-11-23T03:34:00,mfh,26.40
2022-11-23T03:35:00,mfh,27.24
2022-11-23T03:36:00,mfh,27.23
2022-11-23T03:37:00,mfh,27.25
2022-11-23T03:38:00,mfh,27.11
2022-11-23T03:39:00,mfh,26.43
2022-11-23T03:40:00,mfh,26.43
2022-11-23T03:41:00,mfh,27.07
2022-11-23T03:42:00,mfh,27.41
2022-11-23T03:43:00,mfh,27.15
2022-11-23T03:44:00,mfh,27.25
2022-11-23T03:45:00,mfh,27.21
2022-11-23T03:46:00,mfh,27.28
2022-11-23T03:47:00,mfh,26.66
2022-11-23T03:48:00,mfh,26.37
2022-11-23T03:49:00,mfh,26.31
2022-11-23T03:50:00,mfh,26.67
2022-11-23T03:51:00,mfh,26.85
2022-11-23T03:52:00,mfh,26.92
2022-11-23T03:53:00,mfh,27.74
2022-11-23T03:54:00,mfh,26.70
2022-11-23T03:55:00,mfh,26.76
2022-11-23T03:56:00,mfh,26.12
2022-11-23T03:57:00,mfh,26.22
2022-11-23T03:58:00,mfh,26.29
2022-11-23T03:59:00,mfh,26.22
2022-11-23T04:00:00,mfh,26.80
2022-11-23T04:01:00,mfh,28.96
2022-11-23T04:02:00,mfh,28.88
2022-11-23T04:03:00,mfh,28.88
2022-11-23T04:04:00,mfh,28.14
2022-11-23T04:05:00,mfh,28.17
2022-11-23T04:06:00,mfh,28.23
2022-11-23T04:07:00,mfh,28.75
2022-11-23T04:08:00,mfh,28.81
2022-11-23T04:09:00,mfh,28.91
2022-11-23T04:10:00,mfh,28.91
2022-11-23T04:11:00,mfh,28.97
2022-11-23T04:12:00,mfh,28.27
2022-11-23T04:13:00,mfh,28.28
2022-11-23T04:14:00,mfh,29.81
2022-11-23T04:15:00,mfh,28.29
2022-11-23T04:16:00,mfh,28.92
2022-11-23T04:17:00,mfh,28.98
2022-11-23T04:18:00,mfh,29.58
2022-11-23T04:19:00,mfh,29.16
2022-11-23T04:20:00,mfh,28.48
2022-11-23T04:21:00,mfh,26.85
2022-11-23T04:22:00,mfh,26.46
2022-11-23T04:23:00,mfh,26.56
2022-11-23T04:24:00,mfh,28.27
2022-11-23T04:25:00,mfh,26.97
2022-11-23T04:26:00,mfh,26.94
2022-11-23T04:27:00,mfh,26.85
2022-11-23T04:28:00,mfh,27.10
2022-11-23T04:29:00,mfh,27.21
2022-11-23T04:30:00,mfh,27.13
2022-11-23T04:31:00,mfh,27.30
2022-11-23T04:32:00,mfh,27.16
2022-11-23T04:33:00,mfh,27.19
2022-11-23T04:34:00,mfh,27.16
2022-11-23T04:35:00,mfh,26.52
2022-11-23T04:36:00,mfh,25.85
2022-11-23T04:37:00,mfh,25.86
2022-11-23T04:38:00,mfh,25.79
2022-11-23T04:39:00,mfh,25.71
2022-11-23T04:40:00,mfh,26.33
2022-11-23T04:41:00,mfh,26.39
2022-11-23T04:42:00,mfh,26.44
2022-11-23T04:43:00,mfh,26.37
2022-11-23T04:44:00,mfh,26.41
2022-11-23T04:45:00,mfh,25.66
2022-11-23T04:46:00,mfh,25.75
2022-11-23T04:47:00,mfh,25.72
2022-11-23T04:48:00,mfh,26.40
2022-11-23T04:49:00,mfh,26.74
2022-11-23T04:50:00,mfh,26.76
2022-11-23T04:51:00,mfh,26.47
2022-11-23T04:52:00,mfh,26.77
2022-11-23T04:53:00,mfh,26.04
2022-11-23T04:54:00,mfh,25.95
2022-11-23T04:55:00,mfh,25.96
2022-11-23T04:56:00,mfh,26.59
2022-11-23T04:57:00,mfh,26.69
2022-11-23T04:58:00,mfh,26.56
2022-11-23T04:59:00,mfh,26.58
2022-11-23T05:00:00,mfh,26.43
2022-11-23T05:01:00,mfh,25.56
2022-11-23T05:02:00,mfh,25.73
2022-11-23T05:03:00,mfh,26.29
2022-11-23T05:04:00,mfh,26.38
2022-11-23T05:05:00,mfh,26.43
2022-11-23T05:06:00,mfh,26.34
2022-11-23T05:07:00,mfh,26.34
2022-11-23T05:08:00,mfh,26.28
2022-11-23T05:09:00,mfh,25.62
2022-11-23T05:10:00,mfh,25.67
2022-11-23T05:11:00,mfh,25.66
2022-11-23T05:12:00,mfh,25.70
2022-11-23T05:13:00,mfh,26.28
2022-11-23T05:14:00,mfh,26.87
2022-11-23T05:15:00,mfh,27.84
2022-11-23T05:16:00,mfh,27.92
2022-11-23T05:17:00,mfh,27.55
2022-11-23T05:18:00,mfh,27.35
2022-11-23T05:19:00,mfh,27.16
2022-11-23T05:20:00,mfh,26.18
2022-11-23T05:21:00,mfh,26.43
2022-11-23T05:22:00,mfh,26.86
2022-11-23T05:23:00,mfh,26.73
2022-11-23T05:24:00,mfh,26.93
2022-11-23T05:25:00,mfh,25.86
2022-11-23T05:26:00,mfh,27.73
2022-11-23T05:27:00,mfh,27.73
2022-11-23T05:28:00,mfh,28.93
2022-11-23T05:29:00,mfh,28.21
2022-11-23T05:30:00,mfh,28.33
2022-11-23T05:31:00,mfh,28.34
2022-11-23T05:32:00,mfh,28.48
2022-11-23T05:33:00,mfh,27.78
2022-11-23T05:34:00,mfh,27.83
2022-11-23T05:35:00,mfh,27.83
2022-11-23T05:36:00,mfh,28.60
2022-11-23T05:37:00,mfh,28.42
2022-11-23T05:38:00,mfh,29.13
2022-11-23T05:39:00,mfh,28.26
2022-11-23T05:40:00,mfh,28.20
2022-11-23T05:41:00,mfh,27.46
2022-11-23T05:42:00,mfh,27.58
2022-11-23T05:43:00,mfh,27.47
2022-11-23T05:44:00,mfh,27.46
2022-11-23T05:45:00,mfh,27.29
2022-11-23T05:46:00,mfh,26.26
2022-11-23T05:47:00,mfh,26.67
2022-11-23T05:48:00,mfh,26.17
2022-11-23T05:49:00,mfh,25.64
2022-11-23T05:50:00,mfh,25.66
2022-11-23T05:51:00,mfh,25.73
2022-11-23T05:52:00,mfh,25.63
2022-11-23T05:53:00,mfh,26.24
2022-11-23T05:54:00,mfh,26.26
2022-11-23T05:55:00,mfh,26.54
2022-11-23T05:56:00,mfh,27.28
2022-11-23T05:57:00,mfh,25.82
2022-11-23T05:58:00,mfh,25.94
2022-11-23T05:59:00,mfh,25.85
2022-11-23T06:00:00,mfh,25.85
2022-11-23T06:01:00,mfh,26.52
2022-11-23T06:02:00,mfh,27.14
2022-11-23T06:03:00,mfh,26.35
2022-11-23T06:04:00,mfh,26.46
2022-11-23T06:05:00,mfh,25.95
2022-11-23T06:06:00,mfh,26.58
2022-11-23T06:07:00,mfh,26.01
2022-11-23T06:08:00,mfh,25.98
2022-11-23T06:09:00,mfh,26.53
2022-11-23T06:10:00,mfh,26.61
2022-11-23T06:11:00,mfh,26.62
2022-11-23T06:12:00,mfh,26.61
2022-11-23T06:13:00,mfh,26.38
2022-11-23T06:14:00,mfh,25.74
2022-11-23T06:15:00,mfh,25.73
2022-11-23T06:16:00,mfh,25.71
2022-11-23T06:17:00,mfh,25.71
2022-11-23T06:18:00,mfh,26.35
2022-11-23T06:19:00,mfh,26.33
2022-11-23T06:20:00,mfh,26.57
2022-11-23T06:21:00,mfh,27.24
2022-11-23T06:22:00,mfh,25.73
2022-11-23T06:23:00,mfh,25.72
2022-11-23T06:24:00,mfh,25.67
2022-11-23T06:25:00,mfh,25.88
2022-11-23T06:26:00,mfh,27.34
2022-11-23T06:27:00,mfh,27.93
2022-11-23T06:28:00,mfh,27.37
2022-11-23T06:29:00,mfh,27.40
2022-11-23T06:30:00,mfh,25.95
2022-11-23T06:31:00,mfh,25.98
2022-11-23T06:32:00,mfh,25.92
2022-11-23T06:33:00,mfh,25.85
2022-11-23T06:34:00,mfh,26.36
2022-11-23T06:35:00,mfh,26.43
2022-11-23T06:36:00,mfh,26.49
2022-11-23T06:37:00,mfh,26.57
2022-11-23T06:38:00,mfh,26.56
2022-11-23T06:39:00,mfh,25.78
2022-11-23T06:40:00,mfh,26.18
2022-11-23T06:41:00,mfh,25.73
2022-11-23T06:42:00,mfh,26.62
2022-11-23T06:43:00,mfh,26.72
2022-11-23T06:44:00,mfh,28.27
2022-11-23T06:45:00,mfh,26.81
2022-11-23T06:46:00,mfh,26.69
2022-11-23T06:47:00,mfh,26.20
2022-11-23T06:48:00,mfh,26.19
2022-11-23T06:49:00,mfh,26.03
2022-11-23T06:50:00,mfh,26.14
2022-11-23T06:51:00,mfh,26.27
2022-11-23T06:52:00,mfh,28.14
2022-11-23T06:53:00,mfh,28.16
2022-11-23T06:54:00,mfh,27.46
2022-11-23T06:55:00,mfh,27.45
2022-11-23T06:56:00,mfh,27.98
2022-11-23T06:57:00,mfh,27.45
2022-11-23T06:58:00,mfh,28.06
2022-11-23T06:59:00,mfh,28.62
2022-11-23T07:00:00,mfh,28.18
2022-11-23T07:01:00,mfh,39.72
2022-11-23T07:02:00,mfh,38.99
2022-11-23T07:03:00,mfh,39.00
2022-11-23T07:04:00,mfh,38.89
2022-11-23T07:05:00,mfh,39.20
2022-11-23T07:06:00,mfh,39.31
2022-11-23T07:07:00,mfh,39.44
2022-11-23T07:08:00,mfh,39.26
2022-11-23T07:09:00,mfh,39.05
2022-11-23T07:10:00,mfh,39.05
2022-11-23T07:11:00,mfh,38.90
2022-11-23T07:12:00,mfh,38.00
2022-11-23T07:13:00,mfh,37.10
2022-11-23T07:14:00,mfh,36.99
2022-11-23T07:15:00,mfh,37.57
2022-11-23T07:16:00,mfh,37.69
2022-11-23T07:17:00,mfh,37.71
2022-11-23T07:18:00,mfh,37.84
2022-11-23T07:19:00,mfh,37.14
2022-11-23T07:20:00,mfh,37.19
2022-11-23T07:21:00,mfh,37.14
2022-11-23T07:22:00,mfh,38.05
2022-11-23T07:23:00,mfh,37.84
2022-11-23T07:24:00,mfh,37.91
2022-11-23T07:25:00,mfh,37.64
2022-11-23T07:26:00,mfh,37.62
2022-11-23T07:27:00,mfh,37.05
2022-11-23T07:28:00,mfh,37.05
2022-11-23T07:29:00,mfh,36.87
2022-11-23T07:30:00,mfh,36.90
2022-11-23T07:31:00,mfh,37.48
2022-11-23T07:32:00,mfh,37.39
2022-11-23T07:33:00,mfh,43.05
2022-11-23T07:34:00,mfh,48.09
2022-11-23T07:35:00,mfh,48.10
2022-11-23T07:36:00,mfh,47.53
2022-11-23T07:37:00,mfh,47.48
2022-11-23T07:38:00,mfh,47.83
2022-11-23T07:39:00,mfh,47.19
2022-11-23T07:40:00,mfh,47.52
2022-11-23T07:41:00,mfh,50.69
2022-11-23T07:42:00,mfh,50.58
2022-11-23T07:43:00,mfh,51.00
2022-11-23T07:44:00,mfh,51.13
2022-11-23T07:45:00,mfh,51.10
2022-11-23T07:46:00,mfh,50.60
2022-11-23T07:47:00,mfh,50.75
2022-11-23T07:48:00,mfh,50.65
2022-11-23T07:49:00,mfh,51.38
2022-11-23T07:50:00,mfh,58.36
2022-11-23T07:51:00,mfh,59.33
2022-11-23T07:52:00,mfh,59.99
2022-11-23T07:53:00,mfh,60.11
2022-11-23T07:54:00,mfh,60.08
2022-11-23T07:55:00,mfh,59.37
2022-11-23T07:56:00,mfh,59.44
2022-11-23T07:57:00,mfh,59.33
2022-11-23T07:58:00,mfh,65.36
2022-11-23T07:59:00,mfh,65.73
2022-11-23T08:00:00,mfh,65.83
2022-11-23T08:01:00,mfh,65.68
2022-11-23T08:02:00,mfh,65.50
2022-11-23T08:03:00,mfh,65.57
2022-11-23T08:04:00,mfh,65.47
2022-11-23T08:05:00,mfh,65.29
2022-11-23T08:06:00,mfh,65.34
2022-11-23T08:07:00,mfh,64.50
2022-11-23T08:08:00,mfh,65.98
2022-11-23T08:09:00,mfh,65.17
2022-11-23T08:10:00,mfh,64.99
2022-11-23T08:11:00,mfh,65.59
2022-11-23T08:12:00,mfh,65.27
2022-11-23T08:13:00,mfh,65.17
2022-11-23T08:14:00,mfh,65.93
2022-11-23T08:15:00,mfh,64.92
2022-11-23T08:16:00,mfh,64.56
2022-11-23T08:17:00,mfh,64.38
2022-11-23T08:18:00,mfh,64.46
2022-11-23T08:19:00,mfh,65.00
2022-11-23T08:20:00,mfh,66.83
2022-11-23T08:21:00,mfh,66.50
2022-11-23T08:22:00,mfh,66.58
2022-11-23T08:23:00,mfh,66.40
2022-11-23T08:24:00,mfh,66.60
2022-11-23T08:25:00,mfh,60.28
2022-11-23T08:26:00,mfh,59.40
2022-11-23T08:27:00,mfh,59.58
2022-11-23T08:28:00,mfh,70.53
2022-11-23T08:29:00,mfh,73.07
2022-11-23T08:30:00,mfh,73.94
2022-11-23T08:31:00,mfh,74.07
2022-11-23T08:32:00,mfh,74.15
2022-11-23T08:33:00,mfh,74.13
2022-11-23T08:34:00,mfh,73.31
2022-11-23T08:35:00,mfh,73.59
2022-11-23T08:36:00,mfh,75.70
2022-11-23T08:37:00,mfh,75.26
2022-11-23T08:38:00,mfh,75.86
2022-11-23T08:39:00,mfh,75.81
2022-11-23T08:40:00,mfh,75.53
2022-11-23T08:41:00,mfh,75.42
2022-11-23T08:42:00,mfh,68.99
2022-11-23T08:43:00,mfh,68.97
2022-11-23T08:44:00,mfh,69.49
2022-11-23T08:45:00,mfh,61.90
2022-11-23T08:46:00,mfh,62.86
2022-11-23T08:47:00,mfh,62.50
2022-11-23T08:48:00,mfh,61.71
2022-11-23T08:49:00,mfh,62.48
2022-11-23T08:50:00,mfh,61.28
2022-11-23T08:51:00,mfh,61.19
2022-11-23T08:52:00,mfh,61.07
2022-11-23T08:53:00,mfh,59.22
2022-11-23T08:54:00,mfh,59.91
2022-11-23T08:55:00,mfh,60.07
2022-11-23T08:56:00,mfh,60.60
2022-11-23T08:57:00,mfh,59.93
2022-11-23T08:58:00,mfh,59.74
2022-11-23T08:59:00,mfh,59.07
2022-11-23T09:00:00,mfh,59.09
2022-11-23T09:01:00,mfh,59.67
2022-11-23T09:02:00,mfh,60.43
2022-11-23T09:03:00,mfh,59.75
2022-11-23T09:04:00,mfh,54.45
2022-11-23T09:05:00,mfh,54.18
2022-11-23T09:06:00,mfh,53.70
2022-11-23T09:07:00,mfh,60.08
2022-11-23T09:08:00,mfh,59.45
2022-11-23T09:09:00,mfh,60.27
2022-11-23T09:10:00,mfh,60.04
2022-11-23T09:11:00,mfh,59.99
2022-11-23T09:12:00,mfh,60.67
2022-11-23T09:13:00,mfh,59.87
2022-11-23T09:14:00,mfh,60.12
2022-11-23T09:15:00,mfh,59.22
2022-11-23T09:16:00,mfh,59.30
2022-11-23T09:17:00,mfh,59.23
2022-11-23T09:18:00,mfh,59.27
2022-11-23T09:19:00,mfh,59.88
2022-11-23T09:20:00,mfh,60.06
2022-11-23T09:21:00,mfh,54.47
2022-11-23T09:22:00,mfh,54.06
2022-11-23T09:23:00,mfh,53.24
2022-11-23T09:24:00,mfh,45.59
2022-11-23T09:25:00,mfh,45.82
2022-11-23T09:26:00,mfh,47.01
2022-11-23T09:27:00,mfh,46.64
2022-11-23T09:28:00,mfh,47.09
2022-11-23T09:29:00,mfh,46.89
2022-11-23T09:30:00,mfh,47.32
2022-11-23T09:31:00,mfh,46.65
2022-11-23T09:32:00,mfh,46.60
2022-11-23T09:33:00,mfh,46.69
2022-11-23T09:34:00,mfh,47.42
2022-11-23T09:35:00,mfh,46.95
2022-11-23T09:36:00,mfh,47.01
2022-11-23T09:37:00,mfh,46.96
2022-11-23T09:38:00,mfh,47.20
2022-11-23T09:39:00,mfh,46.30
2022-11-23T09:40:00,mfh,46.80
2022-11-23T09:41:00,mfh,46.14
2022-11-23T09:42:00,mfh,46.65
2022-11-23T09:43:00,mfh,46.79
2022-11-23T09:44:00,mfh,46.69
2022-11-23T09:45:00,mfh,46.72
2022-11-23T09:46:00,mfh,46.70
2022-11-23T09:47:00,mfh,45.81
2022-11-23T09:48:00,mfh,45.97
2022-11-23T09:49:00,mfh,46.68
2022-11-23T09:50:00,mfh,46.34
2022-11-23T09:51:00,mfh,46.86
2022-11-23T09:52:00,mfh,46.66
2022-11-23T09:53:00,mfh,47.04
2022-11-23T09:54:00,mfh,63.39
2022-11-23T09:55:00,mfh,65.23
2022-11-23T09:56:00,mfh,66.78
2022-11-23T09:57:00,mfh,67.21
2022-11-23T09:58:00,mfh,66.37
2022-11-23T09:59:00,mfh,67.41
2022-11-23T10:00:00,mfh,66.96
2022-11-23T10:01:00,mfh,66.78
2022-11-23T10:02:00,mfh,66.89
2022-11-23T10:03:00,mfh,65.72
2022-11-23T10:04:00,mfh,65.89
2022-11-23T10:05:00,mfh,65.48
2022-11-23T10:06:00,mfh,65.27
2022-11-23T10:07:00,mfh,60.08
2022-11-23T10:08:00,mfh,60.29
2022-11-23T10:09:00,mfh,54.25
2022-11-23T10:10:00,mfh,45.89
2022-11-23T10:11:00,mfh,45.83
2022-11-23T10:12:00,mfh,45.27
2022-11-23T10:13:00,mfh,45.20
2022-11-23T10:14:00,mfh,45.13
2022-11-23T10:15:00,mfh,45.84
2022-11-23T10:16:00,mfh,45.90
2022-11-23T10:17:00,mfh,45.72
2022-11-23T10:18:00,mfh,45.79
2022-11-23T10:19:00,mfh,47.09
2022-11-23T10:20:00,mfh,45.57
2022-11-23T10:21:00,mfh,46.40
2022-11-23T10:22:00,mfh,45.95
2022-11-23T10:23:00,mfh,46.07
2022-11-23T10:24:00,mfh,46.11
2022-11-23T10:25:00,mfh,46.10
2022-11-23T10:26:00,mfh,46.10
2022-11-23T10:27:00,mfh,46.19
2022-11-23T10:28:00,mfh,47.54
2022-11-23T10:29:00,mfh,47.00
2022-11-23T10:30:00,mfh,46.60
2022-11-23T10:31:00,mfh,48.25
2022-11-23T10:32:00,mfh,47.34
2022-11-23T10:33:00,mfh,47.93
2022-11-23T10:34:00,mfh,47.36
2022-11-23T10:35:00,mfh,47.70
2022-11-23T10:36:00,mfh,46.75
2022-11-23T10:37:00,mfh,46.30
2022-11-23T10:38:00,mfh,46.42
2022-11-23T10:39:00,mfh,47.26
2022-11-23T10:40:00,mfh,47.35
2022-11-23T10:41:00,mfh,48.68
2022-11-23T10:42:00,mfh,49.10
2022-11-23T10:43:00,mfh,47.44
2022-11-23T10:44:00,mfh,46.54
2022-11-23T10:45:00,mfh,47.09
2022-11-23T10:46:00,mfh,48.08
2022-11-23T10:47:00,mfh,48.12
2022-11-23T10:48:00,mfh,48.52
2022-11-23T10:49:00,mfh,47.70
2022-11-23T10:50:00,mfh,48.03
2022-11-23T10:51:00,mfh,49.55
2022-11-23T10:52:00,mfh,46.69
2022-11-23T10:53:00,mfh,49.16
2022-11-23T10:54:00,mfh,46.52
2022-11-23T10:55:00,mfh,46.82
2022-11-23T10:56:00,mfh,47.27
2022-11-23T10:57:00,mfh,47.39
2022-11-23T10:58:00,mfh,47.39
2022-11-23T10:59:00,mfh,47.56
2022-11-23T11:00:00,mfh,47.27
2022-11-23T11:01:00,mfh,47.29
2022-11-23T11:02:00,mfh,46.77
2022-11-23T11:03:00,mfh,47.13
2022-11-23T11:04:00,mfh,47.40
2022-11-23T11:05:00,mfh,47.27
2022-11-23T11:06:00,mfh,48.38
2022-11-23T11:07:00,mfh,48.34
2022-11-23T11:08:00,mfh,47.05
2022-11-23T11:09:00,mfh,46.54
2022-11-23T11:10:00,mfh,46.54
2022-11-23T11:11:00,mfh,48.01
2022-11-23T11:12:00,mfh,47.13
2022-11-23T11:13:00,mfh,48.31
2022-11-23T11:14:00,mfh,50.00
2022-11-23T11:15:00,mfh,49.10
2022-11-23T11:16:00,mfh,48.83
2022-11-23T11:17:00,mfh,48.16
2022-11-23T11:18:00,mfh,49.70
2022-11-23T11:19:00,mfh,46.49
2022-11-23T11:20:00,mfh,47.84
2022-11-23T11:21:00,mfh,47.71
2022-11-23T11:22:00,mfh,47.74
2022-11-23T11:23:00,mfh,47.90
2022-11-23T11:24:00,mfh,47.23
2022-11-23T11:25:00,mfh,46.57
2022-11-23T11:26:00,mfh,46.73
2022-11-23T11:27:00,mfh,46.74
2022-11-23T11:28:00,mfh,47.32
2022-11-23T11:29:00,mfh,47.36
2022-11-23T11:30:00,mfh,47.41
2022-11-23T11:31:00,mfh,47.65
2022-11-23T11:32:00,mfh,47.68
2022-11-23T11:33:00,mfh,47.27
2022-11-23T11:34:00,mfh,46.82
2022-11-23T11:35:00,mfh,46.73
2022-11-23T11:36:00,mfh,47.23
2022-11-23T11:37:00,mfh,47.34
2022-11-23T11:38:00,mfh,47.37
2022-11-23T11:39:00,mfh,47.30
2022-11-23T11:40:00,mfh,47.34
2022-11-23T11:41:00,mfh,47.46
2022-11-23T11:42:00,mfh,46.45
2022-11-23T11:43:00,mfh,46.68
2022-11-23T11:44:00,mfh,46.56
2022-11-23T11:45:00,mfh,47.23
2022-11-23T11:46:00,mfh,47.43
2022-11-23T11:47:00,mfh,48.04
2022-11-23T11:48:00,mfh,47.50
2022-11-23T11:49:00,mfh,46.79
2022-11-23T11:50:00,mfh,47.78
2022-11-23T11:51:00,mfh,47.04
2022-11-23T11:52:00,mfh,46.96
2022-11-23T11:53:00,mfh,47.39
2022-11-23T11:54:00,mfh,47.33
2022-11-23T11:55:00,mfh,48.25
2022-11-23T11:56:00,mfh,47.56
2022-11-23T11:57:00,mfh,46.87
2022-11-23T11:58:00,mfh,53.28
2022-11-23T11:59:00,mfh,54.70
2022-11-23T12:00:00,mfh,54.64
2022-11-23T12:01:00,mfh,55.12
2022-11-23T12:02:00,mfh,67.19
2022-11-23T12:03:00,mfh,67.76
2022-11-23T12:04:00,mfh,69.16
2022-11-23T12:05:00,mfh,69.17
2022-11-23T12:06:00,mfh,68.32
2022-11-23T12:07:00,mfh,68.24
2022-11-23T12:08:00,mfh,69.08
2022-11-23T12:09:00,mfh,68.73
2022-11-23T12:10:00,mfh,68.67
2022-11-23T12:11:00,mfh,69.02
2022-11-23T12:12:00,mfh,68.58
2022-11-23T12:13:00,mfh,68.33
2022-11-23T12:14:00,mfh,67.75
2022-11-23T12:15:00,mfh,68.00
2022-11-23T12:16:00,mfh,67.84
2022-11-23T12:17:00,mfh,68.63
2022-11-23T12:18:00,mfh,68.41
2022-11-23T12:19:00,mfh,68.81
2022-11-23T12:20:00,mfh,68.45
2022-11-23T12:21:00,mfh,67.66
2022-11-23T12:22:00,mfh,68.03
2022-11-23T12:23:00,mfh,67.14
2022-11-23T12:24:00,mfh,67.21
2022-11-23T12:25:00,mfh,67.73
2022-11-23T12:26:00,mfh,67.79
2022-11-23T12:27:00,mfh,67.63
2022-11-23T12:28:00,mfh,67.62
2022-11-23T12:29:00,mfh,67.32
2022-11-23T12:30:00,mfh,67.04
2022-11-23T12:31:00,mfh,67.16
2022-11-23T12:32:00,mfh,66.51
2022-11-23T12:33:00,mfh,67.12
2022-11-23T12:34:00,mfh,67.26
2022-11-23T12:35:00,mfh,67.26
2022-11-23T12:36:00,mfh,67.16
2022-11-23T12:37:00,mfh,67.15
2022-11-23T12:38:00,mfh,66.71
2022-11-23T12:39:00,mfh,66.92
2022-11-23T12:40:00,mfh,67.32
2022-11-23T12:41:00,mfh,66.84
2022-11-23T12:42:00,mfh,67.45
2022-11-23T12:43:00,mfh,67.48
2022-11-23T12:44:00,mfh,67.69
2022-11-23T12:45:00,mfh,67.23
2022-11-23T12:46:00,mfh,66.62
2022-11-23T12:47:00,mfh,66.91
2022-11-23T12:48:00,mfh,66.88
2022-11-23T12:49:00,mfh,67.64
2022-11-23T12:50:00,mfh,67.56
2022-11-23T12:51:00,mfh,68.19
2022-11-23T12:52:00,mfh,68.03
2022-11-23T12:53:00,mfh,67.54
2022-11-23T12:54:00,mfh,67.06
2022-11-23T12:55:00,mfh,66.90
2022-11-23T12:56:00,mfh,66.96
2022-11-23T12:57:00,mfh,66.90
2022-11-23T12:58:00,mfh,68.03
2022-11-23T12:59:00,mfh,67.48
2022-11-23T13:00:00,mfh,67.54
2022-11-23T13:01:00,mfh,67.51
2022-11-23T13:02:00,mfh,67.60
2022-11-23T13:03:00,mfh,66.88
2022-11-23T13:04:00,mfh,66.98
2022-11-23T13:05:00,mfh,67.32
2022-11-23T13:06:00,mfh,67.69
2022-11-23T13:07:00,mfh,68.04
2022-11-23T13:08:00,mfh,67.94
2022-11-23T13:09:00,mfh,68.03
2022-11-23T13:10:00,mfh,67.92
2022-11-23T13:11:00,mfh,67.29
2022-11-23T13:12:00,mfh,67.04
2022-11-23T13:13:00,mfh,66.93
2022-11-23T13:14:00,mfh,67.69
2022-11-23T13:15:00,mfh,67.51
2022-11-23T13:16:00,mfh,67.51
2022-11-23T13:17:00,mfh,67.68
2022-11-23T13:18:00,mfh,67.69